Regional Weather Roundup
Issued by NWS Newport/Morehead, NC

Home | Current Version | Previous Version | Text Only | Print | Product List | Glossary On
Versions: 1 2 3 4 5 6 7 8 9 10 11 12 13 14 15 16 17 18 19 20 21 22 23 24 25 26 27 28 29 30 31 32 33 34 35 36 37 38 39 40 41 42 43 44 45 46 47 48 49 50
000
ASUS42 KMHX 211024
RWRMHX
WEATHER ROUNDUP FOR EASTERN NORTH CAROLINA
NATIONAL WEATHER SERVICE NEWPORT/MOREHEAD CITY NC
600 AM EDT TUE APR 21 2015

NOTE: "FAIR" INDICATES FEW OR NO CLOUDS BELOW 12,000 FEET
WITH NO SIGNIFICANT WEATHER AND/OR OBSTRUCTIONS TO VISIBILITY

NCZ015>017-031-032-045>047-102-103-211100-
NORTH COAST

CITY           SKY/WX    TMP DP  RH WIND       PRES   REMARKS
EDENTON        MOCLDY    63  58  81 W7        29.74R
ELIZABETH CITY PTCLDY    62  55  77 SW9       29.71R
KITTY HAWK     MOSUNNY   68  62  80 SW9G16    29.70R
MANTEO         PTCLDY    67  62  82 W15G21    29.72R

$$

NCZ045>047-081-094-103-104-211100-
CENTRAL COAST

CITY           SKY/WX    TMP DP  RH WIND       PRES   REMARKS
FRISCO         CLEAR     65  60  84 W14G23    29.74R
SWANQUARTER      N/A     68 N/A N/A W14G22    29.71S

$$

NCZ095-097-098-100-101-211100-
SOUTHERN COAST

CITY           SKY/WX    TMP DP  RH WIND       PRES   REMARKS
BEAUFORT       CLEAR     65  62  90 SW9       29.76R
CEDAR ISLAND     N/A     66 N/A N/A SW6G15    29.79R
JACKSONVILLE   CLEAR     64  60  87 SW8       29.77R
PINEY ISLAND   SUNNY    N/A N/A N/A W12       29.75R
WILMINGTON     CLEAR     64  59  83 SW12      29.79R


$$

NCZ011>013-027>030-043-044-078>080-089-090>093-098-211100-
COASTAL PLAIN

CITY           SKY/WX    TMP DP  RH WIND       PRES   REMARKS
AHOSKIE        PTCLDY    59  56  89 CALM      29.75R
CLINTON        PTCLDY    63  61  93 W6        29.79R
ELIZABETHTOWN  PTCLDY    63  59  87 W6        29.81R
GOLDSBORO      MOCLDY    66  57  72 NW10G22   29.77R
GREENVILLE     PTCLDY    64  55  72 W6        29.79R
HAVELOCK       CLEAR     65  60  84 W10       29.77R
KENANSVILLE    CLEAR     63  59  88 SW7       29.80R
KINSTON        PTCLDY    65  62  87 W6        29.77R
NEW BERN       CLEAR     66  60  81 W9        29.77R
RICHLANDS      CLEAR     63  57  82 SW7       29.79R
ROCKY MOUNT    MOCLDY    61  56  83 NW10      29.78R
WASHINGTON     MOCLDY    65  61  85 W5        29.77R
WHITEVILLE     CLEAR     63  58  84 SW3       29.80R

$$

AMZ130-135-150-152-154-156-158-170-250-252-270-ANZ085-086-088-633-658-670-211100-
MARINE OBSERVATIONS

STATION/POSITION TIME  TEMP    WIND        PRES    WAVE   SWELL
                       AIR SEA DIR/SP/G            HT/PER HT/PER
                 (UTC) (F)     (DEG/KT/KT) (MB)    (FT/S) (FT/S)
CHESAPEAKE LIGHT 1000   62     250/ 26/ 27 1005.0
64 E VA BEACH    0950   61 56  220/ 16/ 19 1004.1    5/ 7   3/ 9
DUCK             1000   67 48  250/ 15/ 21 1004.9
2 E DUCK         0911      51                N/A     3/ 8   2/13
10 NE DUCK       NOT AVBL
OREGON INLET     1000   68 67  230/ 16/ 17 1006.1
HATTERAS CG      1000   68 68  240/ 10/ 15 1006.9
DIAMOND BUOY     0950   71 74  250/ 27/ 31 1006.8    8/ 7   2/11
CAPE LOOKOUT     1000   65     250/ 12/ 18 1007.7
BEAUFORT LAB     1000   65 66  240/  7/ 12 1007.0
27 SE WRIGHTSVLE 1000   64 68  260/ 19/ 23   N/A
5 SE WRIGHTSVLE  1000   66 65  260/ 12/ 14 1008.8
225 S CAPE HAT   0950   72 72  230/ 14/ 17 1011.5    5/ 7   2/ 8
41 SE CHARLESTON 0950   70 73  260/ 19/ 23 1010.2    6/ 6

$$


USA.gov is the U.S. government's official web portal to all federal, state and local government web resources and services.